sat.trackr.live / text

‹ back to catalog

STARLINK-34500

NORAD 64613 · 2025-137V

PAYLOAD ACTIVE UNKNOWN

§ Identity

Operator
Country
US
Launch date
2025-06-25
Launch site
AFETR
Launch vehicle
Mass (kg)
RCS (m²)

Purposes: comms

External: N2YO · Heavens-Above · Gunter

§ Orbital elements

Epoch: 2026-09-19T04:56:44.602656Z

Period
93.85 min
Inclination
53.1590°
Eccentricity
0.0001203
Mean motion
15.34408700 rev/d
Perigee alt
461.9 km
Apogee alt
463.5 km
Semi-major
6,840.8 km
B*
7.1707e-4
RAAN
153.4977°
Arg perigee
89.4616°
Mean anomaly
270.6524°
Rev number
7,050

§ Raw data

STARLINK-345001 64613U 25137V   26262.20607179  .00023935  00000+0  71707-3 0  99942 64613  53.1590 153.4977 0001203  89.4616 270.6524 15.34408700 70501

JSON: /api/v1/satellites/64613 · /tle

For live sub-satellite position, see the globe view (requires WebGL).

§ Visibility from observer

Set your observer location to see the next 7 days of passes ≥ 10°. The values pass through the URL so the page stays shareable.

No JS? Fill the form by hand. The geolocation button needs JavaScript.